Flag for Lebanon Weather past 2 weeks in Zahlé, Lebanon

Now
73 °F

Clear.


Feels Like: 76 °F
Forecast: 57 / 86 °F
Wind: 5 mph from Southeast

Location: Beirut Airport

Current Time: May 26, 2015 at 3:49:09 AM

Latest Report: May 26, 2015 at 3:00 AM


Visibility: 10 mi

Pressure: 29.89 "Hg

Humidity: 65%

Dew point: 61 °F

Location of ZahléLocation

Historic Weather in Zahlé — Graph

°F

Zahlé temperature yesterday

Maximum temperature yesterday: 86 °F (at 4:00 PM)
Minimum temperature yesterday: 73 °F (at 3:00 AM)
Average temperature yesterday: 79 °F

Past Weeks' High & Low Weather Summary

 TemperatureHumidityPressure
High104 °F (May 19, 1:00 PM)94% (May 20, 2:00 AM)30.21 "Hg (May 20, 2:00 AM)
Low64 °F (May 14, 9:00 AM)10% (May 19, 9:00 AM)29.74 "Hg (May 19, 5:00 AM)
Average75 °F62%29.95 "Hg
* Reported May 11 2:00 AM — May 26 2:00 AM, Zahlé, Weather by CustomWeather, © 2015

Note: Actual official high and low records may vary slightly from our data, if they occured in-between our weather recording intervals... More about our weather records

Advertising

Zahlé weather history for previous 24 hours

 ConditionsComfort  
Time TempWeatherWind HumidityBarometerVisibility
2:00 AM
Tue, May 26
73 °FClear.3 mph78%29.92 "Hg10 mi
1:00 AM72 °FClear.2 mph73%29.89 "Hg10 mi
12:00 AM75 °FClear.2 mph74%29.89 "Hg10 mi
11:00 PM
Mon, May 25
75 °FClear.2 mph69%29.89 "Hg10 mi
10:00 PM77 °FClear.3 mph69%29.89 "HgN/A
9:00 PM77 °FClear.1 mph57%29.89 "Hg10 mi
8:00 PM77 °FSunny.2 mph69%29.89 "Hg10 mi
7:00 PM79 °FSunny.5 mph70%29.89 "Hg10 mi
6:00 PM81 °FPassing clouds.5 mph62%29.89 "HgN/A
5:00 PM84 °FSunny.5 mph43%29.92 "HgN/A
4:00 PM86 °FSunny.6 mph29%29.92 "HgN/A
3:00 PM84 °FSunny.5 mph33%29.92 "Hg10 mi
2:00 PM84 °FPassing clouds.6 mph33%29.95 "HgN/A
1:00 PM82 °FPassing clouds.6 mph37%29.95 "HgN/A
12:00 PM84 °FPassing clouds.6 mph37%29.95 "HgN/A
11:00 AM81 °FSunny.7 mph51%29.98 "Hg10 mi
10:00 AM81 °FSunny.7 mph54%29.98 "Hg10 mi
9:00 AM81 °FSunny.5 mph45%29.95 "Hg10 mi
8:00 AM81 °FSunny.2 mph45%29.95 "HgN/A
7:00 AM73 °FPassing clouds.3 mph50%29.92 "HgN/A
6:00 AM73 °FClear.5 mph57%29.92 "Hg10 mi
5:00 AM73 °FClear.5 mph65%29.89 "Hg10 mi
4:00 AM73 °FClear.2 mph61%29.89 "Hg10 mi
3:00 AM73 °FClear.1 mph50%29.89 "HgN/A
Weather by CustomWeather, © 2015

See weather overviewHow to use our weather pages